Flag for Germany Weather past 2 weeks in Bernau bei Berlin, Brandenburg, Germany

49 °F


Feels Like: 47 °F
Forecast: 34 / 48 °F
Wind: 6 mph from East

Location: Berlin-Tegel

Current Time: Oct 10, 2015 at 6:12:53 PM

Latest Report: Oct 10, 2015 at 6:00 PM

Visibility: 28 mi

Pressure: 30.22 "Hg

Humidity: 36%

Dew point: 23 °F

Location of Bernau bei BerlinLocation

Historic Weather in Bernau bei Berlin — Graph


Bernau bei Berlin temperature yesterday

Maximum temperature yesterday: 53 °F (at 5:00 PM)
Minimum temperature yesterday: 44 °F (at 8:00 AM)
Average temperature yesterday: 48 °F

Past Weeks' High & Low Weather Summary

High68 °F (Oct 3, 4:00 PM)100% (Sep 28, 8:00 AM)30.70 "Hg (Sep 28, 8:00 AM)
Low37 °F (Oct 2, 6:00 AM)28% (Oct 2, 5:00 PM)29.80 "Hg (Oct 6, 6:00 PM)
Average53 °F72%30.25 "Hg
* Reported Sep 25 5:00 PM — Oct 10 5:00 PM, Bernau bei Berlin, Weather by CustomWeather, © 2015

Note: Actual official high and low records may vary slightly from our data, if they occured in-between our weather recording intervals... More about our weather records


Bernau bei Berlin weather history for previous 24 hours

Time TempWeatherWind HumidityBarometerVisibility
5:00 PM
Sat, Oct 10
51 °FSunny.7 mph35%30.22 "Hg25 mi
4:00 PM51 °FSunny.6 mph39%30.22 "Hg25 mi
3:00 PM51 °FSunny.6 mph36%30.23 "Hg25 mi
2:00 PM51 °FPassing clouds.6 mph40%30.24 "Hg25 mi
1:00 PM49 °FPassing clouds.5 mph47%30.25 "Hg22 mi
12:00 PM47 °FPassing clouds.6 mph48%30.27 "Hg22 mi
11:00 AM45 °FScattered clouds.5 mph54%30.28 "Hg22 mi
10:00 AM41 °FPartly sunny.3 mph61%30.29 "Hg19 mi
9:00 AM39 °FOvercast.3 mph63%30.28 "Hg19 mi
8:00 AM38 °FPartly sunny.5 mph66%30.28 "Hg17 mi
7:00 AM39 °FPassing clouds.5 mph65%30.27 "Hg19 mi
6:00 AM39 °FPassing clouds.3 mph65%30.27 "Hg19 mi
5:00 AM40 °FPassing clouds.3 mph63%30.27 "Hg19 mi
4:00 AM41 °FPassing clouds.5 mph61%30.27 "Hg19 mi
3:00 AM41 °FPassing clouds.3 mph61%30.27 "Hg19 mi
2:00 AM42 °FPassing clouds.3 mph59%30.27 "Hg19 mi
1:00 AM45 °FPassing clouds.3 mph53%30.27 "Hg19 mi
11:00 PM
Fri, Oct 9
47 °FOvercast.3 mph53%30.27 "Hg19 mi
10:00 PM48 °FOvercast.3 mph50%30.26 "Hg19 mi
9:00 PM49 °FOvercast.5 mph51%30.26 "Hg17 mi
8:00 PM50 °FPassing clouds.3 mph50%30.24 "Hg17 mi
7:00 PM51 °FOvercast.3 mph53%30.23 "Hg19 mi
6:00 PM52 °FOvercast.3 mph55%30.21 "Hg19 mi
Weather by CustomWeather, © 2015

See weather overviewHow to use our weather pages